Tracking 28790 objects as of 18-Apr-2024
HD Live streaming from Space Station
objects crossing your sky now

SL-3 DEB

Track SL-3 DEB now!
10-day predictions


NORAD ID: 14209
Int'l Code: 1983-075C
Perigee: 473.4 km
Apogee: 504.4 km
Inclination: 97.2 °
Period: 94.2 minutes
Semi major axis: 6859 km
RCS: 0.009 m2 (small)
Launch date: July 24, 1983
Source: Commonwealth of Independent States (former USSR) (CIS)
Launch site: TYURATAM MISSILE AND SPACE COMPLEX (TTMTR)

Note: This is SATELLITE DEBRIS
Your satellite tracking list
Your tracking list is empty




NASA's NSSDC Master Catalog

Two Line Element Set (TLE):
1 14209U 83075C   24108.90111431  .00014795  00000-0  53964-3 0  9990
2 14209  97.1543 103.2590 0022575  33.1910 327.0740 15.28004778232669
Source of the keplerian elements: AFSPC